Regional Weather Roundup
Issued by NWS

Home | Current Version | Previous Version | Graphics & Text | Print | Product List | Glossary On
Versions: 1 2 3 4 5 6 7 8 9 10 11 12 13 14 15 16 17 18 19 20 21 22 23 24 25 26 27 28 29 30 31 32 33 34 35 36 37 38 39 40 41 42 43 44 45 46 47 48 49 50
947
ASUS45 KBOI 121310
RWRID

IDAHO REGIONAL WEATHER ROUNDUP
NATIONAL WEATHER SERVICE BOISE ID
600 AM MST TUE DEC 12 2017

NOTE: "FAIR" INDICATES FEW OR NO CLOUDS BELOW 12000 FEET
WITH NO SIGNIFICANT WEATHER AND/OR OBSTRUCTIONS TO VISIBILITY

IDZ012-014-121400-
SOUTHWEST IDAHO


CITY           SKY/WX    TMP DP  RH WIND       PRES   REMARKS
BOISE          CLOUDY    24  21  88 N5        30.67S WCI  18
CALDWELL       NOT AVBL
MOUNTAIN HOME  CLOUDY    22  22 100 S3        30.66S FOG
$$

IDZ016-017-121400-
SOUTHCENTRAL IDAHO


CITY           SKY/WX    TMP DP  RH WIND       PRES   REMARKS
BURLEY         FOG       19  15  84 CALM      30.56S VSB 1/4
JEROME         HAZE      23  18  81 NW3       30.59S VSB 1/4
TWIN FALLS     FOG       22  19  89 NW5       30.58R VSB<1/4 WCI  16
$$

IDZ019>023-121400-
SOUTHEAST IDAHO


CITY           SKY/WX    TMP DP  RH WIND       PRES   REMARKS
IDAHO FALLS    CLOUDY    13  10  88 E3        30.55F
POCATELLO      FOG       12  10  92 CALM      30.55F VSB 1
REXBURG        CLOUDY     9   6  88 E5        30.54F WCI   1
$$

IDZ006-010-011-018-031-032-121400-
CENTRAL IDAHO MOUNTAINS


CITY           SKY/WX    TMP DP  RH WIND       PRES   REMARKS
MCCALL         CLEAR      6   2  83 CALM      30.52S
HAILEY         CLEAR     23  14  68 NW10      30.54F WCI  12
STANLEY          N/A     -1  -7  75 CALM      30.60S
SALMON         CLOUDY    14  11  87 S3        30.68F FOG
CHALLIS        PTCLDY     6   2  83 CALM      30.60F
$$

IDZ002-004-006-007-026-121400-
NORTHERN IDAHO


CITY           SKY/WX    TMP DP  RH WIND       PRES   REMARKS
LEWISTON       CLOUDY    28  25  88 NE5       30.62R WCI  23
LOWELL           N/A     25  23  92 CALM      30.67S
COEUR D`ALENE  CLOUDY    26  25  96 W5        30.56F FOG     WCI  20
MULLAN PASS    CLEAR     32  32 100 S6        30.39F WCI  26
$$




USA.gov is the U.S. government's official web portal to all federal, state and local government web resources and services.